Back to catalog

SL-8 DEB

AliveLEO
NORAD 21180·DEBRIS·🇷🇺 Russia

Launched Feb 12, 1991 from Plesetsk Cosmodrome

Loading…

Next Passes (next 24 hours)

TLE

FreshSource: Space-Track

Epoch: Sep 14, 2026, 14:44 UTC

1 21180U 91009AT  26257.61445971  .00000012  00000-0  22793-3 0  9999
2 21180  74.0614 207.2867 0105405 182.0375 353.7930 12.28945253591689

Track SL-8 DEB in real time with AllMySat

Download on the App Store